Regional Weather Roundup
Issued by NWS Little Rock, AR

Home | Current Version | Previous Version | Graphics & Text | Print | Product List | Glossary On
Versions: 1 2 3 4 5 6 7 8 9 10 11 12 13 14 15 16 17 18 19 20 21 22 23 24 25 26 27 28 29 30 31 32
000
ASUS44 KLZK 110805
RWRLZK

WEATHER ROUNDUP FOR ARKANSAS
NATIONAL WEATHER SERVICE LITTLE ROCK AR
200 AM CST MON DEC 11 2017

NOTE: "FAIR" INDICATES FEW OR NO CLOUDS BELOW 12,000 FEET WITH NO
SIGNIFICANT WEATHER AND/OR OBSTRUCTIONS TO VISIBILITY.

ARZ001-003-010-029-110900-
NORTHWEST ARKANSAS

CITY           SKY/WX    TMP DP  RH WIND       PRES   REMARKS
FAYETTEVILLE   CLEAR     30  24  78 CALM      30.20F
FORT SMITH     PTCLDY    37  26  64 CALM      30.21F
HARRISON       CLEAR     47  21  35 W6        30.17F
BENTONVILLE    CLEAR     36  23  59 S5        30.20F
ROGERS         CLEAR     42  22  44 SW7       30.19F
SILOAM SPGS    CLEAR     40  22  48 S3        30.19F
HIGHFILL       CLEAR     35  23  61 CALM      30.19F
$$

ARZ004-005-016-110900-
NORTH CENTRAL ARKANSAS

CITY           SKY/WX    TMP DP  RH WIND       PRES   REMARKS
BATESVILLE     CLEAR     43  26  51 NW6       30.18F
FLIPPIN        CLEAR     35  24  64 W3        30.18S
MTN HOME       CLEAR     43  28  55 CALM      30.16S
$$

ARZ040-041-110900-
WEST CENTRAL ARKANSAS

CITY           SKY/WX    TMP DP  RH WIND       PRES   REMARKS
MENA           CLEAR     43  27  52 W9        30.22S
MOUNT IDA      CLEAR     32  27  81 CALM      30.18F
$$

ARZ009-017-025-026-028-110900-
NORTHEAST ARKANSAS

CITY           SKY/WX    TMP DP  RH WIND       PRES   REMARKS
CORNING        FAIR      32  28  86 W8        30.16F WCI  25
JONESBORO      CLEAR     35  29  78 CALM      30.17S
NEWPORT        CLEAR     37  29  72 SW3       30.18F
WALNUT RIDGE   CLEAR     40  26  57 W6        30.17S
BLYTHEVILLE    CLEAR     34  31  88 SW7       30.17S WCI  28
$$

ARZ022-023-033-042-044-110900-
CENTRAL ARKANSAS

CITY           SKY/WX    TMP DP  RH WIND       PRES   REMARKS
LITTLE ROCK    CLEAR     36  29  75 SW7       30.21S
N LITTLE ROCK    N/A     44  25  46 CALM      30.23S
JACKSONVILLE   CLEAR     35  26  71 CALM      30.18F
SEARCY         CLEAR     35  28  75 CALM      30.19F
HOT SPRINGS    CLEAR     35  31  85 CALM      30.21F
RUSSELLVILLE   CLEAR     31  27  85 CALM      30.19F
CLINTON        FAIR      28  27  93 CALM      30.21S
$$

ARZ036-110900-
EAST ARKANSAS

CITY           SKY/WX    TMP DP  RH WIND       PRES   REMARKS
WEST MEMPHIS   CLEAR     33  30  88 S3        30.18S
$$

ARZ050-053-066-070-073-110900-
SOUTHWEST ARKANSAS

CITY           SKY/WX    TMP DP  RH WIND       PRES   REMARKS
ARKADELPHIA    FAIR      28  25  88 CALM      30.23F
CAMDEN         CLEAR     34  28  80 CALM      30.23R
TEXARKANA      CLEAR     43  28  55 SW5       30.23F
EL DORADO      CLEAR     35  32  88 CALM      30.24S
DE QUEEN       CLEAR     29  29 100 W3        30.22S
$$

ARZ056-057-069-110900-
SOUTHEAST ARKANSAS

CITY           SKY/WX    TMP DP  RH WIND       PRES   REMARKS
PINE BLUFF     PTCLDY    41  29  62 SW3       30.21F
STUTTGART      CLEAR     41  31  67 S9        30.21R
MONTICELLO     PTCLDY    42  29  59 W6        30.22F

$$






USA.gov is the U.S. government's official web portal to all federal, state and local government web resources and services.